Wind_Speed
8 6 7 9 9 10 11 13 11 10 10 10 11 19 27 26 24 22 22 19 17 17 15 13 12 10 6 11 13 12 24 13 9 4 11 9 11 8 12 12 11 12 11 12 10
7 9 9 9 9 10 11 12 10 10 10 10 11 18 27 27 25 23 23 21 19 17 16 13 12 10 9 14 10 19 24 5 12 11 9 12 14 10 13 10 11 11 11 10 10
7 7 9 9 9 9 11 12 11 12 11 11 11 17 28 29 26 25 24 22 20 17 16 14 12 12 12 14 6 22 16 11 11 11 12 14 13 10 13 10 13 12 11 11 11
7 8 8 8 8 10 11 13 12 12 12 11 10 17 28 30 30 27 25 23 21 18 16 16 14 13 13 14 14 20 14 13 4 10 13 7 12 11 12 10 8 9 10 10 10
11 10 10 9 8 10 11 12 13 12 11 11 11 16 29 32 30 27 25 24 21 18 17 17 17 16 15 14 14 24 10 12 8 8 12 17 18 16 15 12 13 11 9 9 8
14 13 12 10 9 10 12 13 13 12 12 11 12 16 29 33 30 27 26 24 21 18 17 19 21 18 17 19 10 8 13 11 12 8 11 13 13 19 18 18 18 18 20 21 18
13 14 12 10 10 11 12 13 14 13 12 11 13 16 27 32 32 29 27 25 21 17 17 18 26 24 20 17 17 16 20 8 8 7 6 17 10 8 13 13 14 14 15 15 15
13 14 12 11 11 12 12 13 14 14 13 12 14 16 23 33 33 30 27 24 21 17 20 25 23 21 18 16 14 17 15 14 8 11 12 19 4 4 9 10 10 10 11 10 10
12 15 14 12 12 12 12 13 13 14 14 14 15 17 22 33 34 31 27 25 21 21 23 24 23 22 20 14 9 8 12 13 6 17 11 2 3 8 4 5 7 6 8 9 9
13 14 14 14 14 14 13 14 14 14 15 15 16 17 20 28 34 32 29 26 23 23 24 24 25 21 17 11 13 5 10 8 8 7 8 7 4 9 5 1 6 6 7 7 8
12 14 15 15 15 14 15 15 17 18 16 17 18 20 19 27 34 33 30 29 26 24 24 27 29 19 14 19 25 17 8 7 11 10 8 3 5 5 8 3 5 5 6 6 4
10 14 16 17 16 17 18 18 18 17 17 17 18 19 20 26 34 34 32 31 29 24 26 27 27 20 23 22 14 15 9 6 5 3 11 12 6 5 5 8 10 11 12 7 3
11 12 14 16 19 20 20 20 20 18 18 19 18 19 19 25 31 34 32 31 30 27 24 29 30 29 19 18 11 7 9 12 8 5 6 1 4 7 11 11 14 17 12 9 6
15 14 13 13 16 19 19 20 20 17 18 18 19 20 19 22 30 33 33 32 32 29 22 30 35 25 24 21 16 12 20 16 8 5 8 5 5 17 10 7 3 9 12 13 12
21 18 16 14 15 16 17 18 19 17 15 24 21 18 21 20 22 28 31 32 31 28 25 27 33 27 25 22 26 5 22 12 10 9 6 8 6 17 25 11 8 16 13 13 15
26 23 20 18 16 16 16 16 17 19 20 20 18 20 22 23 26 28 33 33 32 30 29 31 27 29 28 28 24 23 16 11 7 7 9 10 12 11 13 15 16 17 16 15 15
32 29 25 23 20 20 18 19 19 19 26 21 17 19 20 22 26 28 31 35 36 34 28 35 29 33 34 28 22 18 13 5 8 7 6 17 14 11 21 24 16 17 16 14 14
28 33 32 28 26 24 22 21 22 20 21 26 22 21 22 23 25 25 28 32 32 31 22 27 29 27 31 26 24 21 15 15 13 14 13 20 21 15 28 16 15 17 18 18 17
30 29 32 33 31 29 27 25 18 22 26 23 19 21 23 25 25 25 27 28 29 31 26 21 23 19 29 29 28 24 23 19 20 17 18 16 14 29 27 25 19 20 21 23 24
32 31 31 32 35 35 33 27 26 28 22 23 25 20 23 27 29 28 27 27 28 29 29 26 15 20 31 29 30 34 23 20 20 21 22 18 18 22 35 32 22 22 23 25 27
33 33 30 32 35 37 37 32 32 28 27 27 29 28 27 20 29 28 26 24 28 29 30 29 22 23 21 32 34 35 35 37 23 21 20 19 17 24 32 40 33 27 27 28 29
32 34 32 34 34 34 37 38 39 36 32 30 30 29 30 33 30 31 25 26 30 31 32 31 31 28 26 24 25 33 22 23 28 25 25 25 25 29 34 33 36 38 34 33 32
30 32 31 36 34 34 35 39 45 38 38 36 33 33 36 34 33 32 30 22 36 32 34 33 35 28 26 24 27 32 32 32 24 22 24 22 15 30 35 34 37 38 36 34 33
27 28 30 33 34 35 34 37 42 43 43 43 40 39 38 35 33 33 35 37 40 28 32 33 30 27 27 16 23 26 29 29 28 26 24 23 21 31 35 39 43 42 39 36 35
27 29 26 29 31 34 37 38 38 46 45 46 44 41 37 37 35 35 33 34 33 33 33 35 35 34 25 26 24 28 19 18 20 25 27 22 21 19 28 37 48 38 36 37 38
27 27 27 28 27 28 36 35 33 38 48 45 44 44 42 43 42 36 35 29 35 35 32 31 33 33 27 28 28 27 28 26 25 22 24 24 28 29 26 31 51 36 39 43 43
27 28 29 27 28 29 32 36 36 36 43 43 49 49 50 47 46 46 39 33 24 28 38 33 25 25 28 26 24 29 26 28 28 26 26 27 24 33 31 35 52 43 43 45 44
Wind_Direction
239 229 215 215 213 210 204 200 208 208 209 211 208 187 180 175 175 173 170 170 165 163 155 150 138 129 112 96 110 103 90 109 118 124 93 117 106 116 106 101 98 96 103 115 115
241 233 224 221 212 206 205 202 208 207 207 210 207 188 181 176 176 177 174 175 172 168 161 149 144 122 102 98 129 85 84 195 120 101 101 100 103 95 98 97 96 92 90 99 106
223 220 219 220 217 216 210 207 212 205 202 207 205 189 182 178 181 181 178 178 178 171 166 154 143 127 120 110 157 99 100 102 106 122 110 100 94 95 94 89 87 87 91 92 96
218 219 217 217 224 220 212 211 212 202 200 206 206 192 184 182 189 185 181 182 185 173 169 159 151 139 131 120 118 93 105 112 145 128 87 110 101 93 106 88 94 102 97 99 98
229 224 225 229 230 224 218 213 205 202 200 207 208 198 187 188 183 187 184 186 190 180 170 169 159 148 141 141 116 94 129 107 114 113 121 105 99 103 99 90 87 93 101 101 94
237 236 236 235 229 224 219 211 207 205 203 209 207 203 193 192 184 188 189 191 191 185 184 180 172 160 149 143 142 159 115 120 123 143 117 86 102 85 99 94 86 85 83 81 81
241 237 237 236 230 226 224 216 211 208 210 212 207 210 199 192 191 192 191 193 190 189 183 174 166 166 162 152 140 130 88 112 110 138 73 105 52 122 106 99 96 90 83 76 71
243 235 233 232 229 230 228 218 215 213 212 214 210 213 205 195 194 196 194 192 188 177 167 161 164 163 164 145 138 113 130 159 179 108 104 98 178 116 105 110 97 83 73 69 68
240 239 231 228 227 230 228 220 218 215 213 210 208 212 209 198 198 197 194 191 183 177 164 165 163 166 166 159 157 164 228 128 195 148 167 106 19 264 90 65 71 70 63 51 40
242 238 235 229 227 229 227 223 223 220 220 211 205 212 209 205 201 199 197 191 183 180 175 172 168 171 188 159 182 185 101 185 183 171 149 141 253 335 340 340 16 45 32 25 24
247 242 236 232 230 228 230 222 223 226 220 215 206 214 211 206 202 202 198 194 188 187 184 178 173 165 183 232 196 154 132 184 186 198 122 198 207 132 287 301 296 338 9 347 6
249 246 240 235 230 231 231 230 230 227 225 215 211 215 212 205 204 204 201 196 193 192 192 182 178 194 196 197 169 188 140 203 282 189 112 262 238 214 246 284 287 298 315 344 327
244 249 245 240 234 235 235 235 236 231 224 213 207 209 214 210 206 206 204 202 198 198 201 191 192 206 190 188 164 182 205 204 191 232 192 338 267 252 283 267 285 289 298 321 326
248 247 248 243 235 234 235 234 235 235 229 224 210 208 210 212 209 208 204 205 203 202 203 207 207 202 193 193 153 219 212 201 206 199 236 211 175 304 216 266 199 257 290 300 311
246 245 245 244 240 237 236 233 229 223 221 227 217 210 211 212 211 212 209 210 206 208 209 206 215 204 198 188 161 261 216 220 218 219 251 264 212 234 278 230 236 268 273 285 293
243 242 240 241 238 241 235 229 229 221 223 232 215 214 210 205 208 204 208 210 209 209 212 204 211 213 208 208 200 204 190 204 229 245 226 232 216 248 249 222 263 271 270 269 270
241 241 237 238 236 237 235 229 223 217 223 230 219 210 205 208 209 208 209 207 208 214 221 209 216 207 208 208 212 211 185 211 244 246 264 220 252 214 244 258 264 271 277 280 276
242 240 238 235 233 235 234 229 223 212 222 229 222 212 206 208 211 214 215 214 214 217 219 223 224 213 215 214 214 215 216 202 214 227 254 245 274 246 241 272 269 271 281 281 280
239 241 240 233 235 231 234 232 224 225 220 215 212 213 210 209 211 217 220 222 223 219 212 220 233 240 232 228 220 218 217 212 239 237 241 243 264 276 271 268 271 275 281 284 286
238 239 241 238 233 232 230 230 226 228 226 219 215 217 215 214 211 213 216 219 218 221 220 220 222 237 239 232 224 227 214 246 248 240 238 241 256 251 272 276 268 270 272 274 282
239 236 236 239 237 235 231 227 230 235 227 218 213 216 206 213 216 217 219 219 220 214 225 219 220 223 244 233 229 238 237 244 235 234 249 265 271 247 258 273 278 278 279 279 282
240 240 232 237 238 238 234 227 227 227 230 226 222 218 212 207 211 219 219 220 240 225 226 224 222 229 227 253 243 237 244 253 241 256 252 243 236 261 257 265 268 276 281 281 284
240 241 234 235 236 239 238 231 228 223 226 228 226 223 218 219 223 220 208 223 234 229 223 224 226 227 237 242 247 246 244 241 238 245 243 240 257 249 267 263 266 267 270 276 281
239 240 235 236 232 234 238 236 232 226 225 226 226 226 224 220 223 224 218 222 232 235 233 226 223 231 231 257 239 258 267 248 245 241 246 250 252 268 275 273 263 266 270 275 281
240 238 238 235 233 230 232 235 230 228 227 227 227 229 229 227 226 230 226 235 235 238 237 234 233 233 236 217 257 230 242 239 246 237 238 240 243 259 278 268 263 262 265 273 280
240 238 236 237 236 237 233 231 231 230 230 230 227 228 227 229 228 226 235 230 244 236 239 239 239 239 235 234 236 247 239 251 252 249 253 244 241 238 248 271 268 264 274 277 279
242 238 235 235 234 231 231 226 228 228 233 228 231 226 228 230 228 226 222 217 235 247 241 241 239 234 242 243 250 252 247 251 254 255 258 256 258 252 245 252 262 273 273 277 280
Height
5892 5891 5892 5893 5894 5895 5896 5897 5899 5899 5900 5901 5901 5902 5905 5908 5911 5914 5917 5920 5922 5923 5925 5926 5928 5929 5929 5929 5930 5924 5930 5937 5938 5937 5935 5935 5934 5934 5932 5931 5931 5930 5930 5930 5931
5889 5890 5891 5892 5893 5893 5894 5896 5897 5898 5899 5899 5900 5901 5904 5907 5911 5914 5917 5919 5921 5924 5925 5927 5929 5929 5929 5930 5931 5924 5926 5936 5936 5937 5938 5937 5935 5935 5934 5934 5933 5933 5933 5933 5933
5888 5889 5890 5891 5891 5892 5893 5895 5895 5897 5898 5898 5899 5900 5903 5907 5910 5913 5916 5919 5921 5924 5926 5928 5930 5930 5930 5931 5935 5917 5939 5939 5937 5937 5940 5939 5938 5938 5937 5938 5937 5937 5936 5935 5935
5887 5888 5889 5890 5890 5891 5892 5893 5894 5896 5897 5897 5898 5900 5903 5905 5909 5911 5915 5919 5921 5924 5926 5929 5931 5932 5931 5932 5933 5938 5939 5938 5940 5939 5942 5944 5940 5940 5939 5940 5939 5939 5938 5937 5937
5886 5887 5888 5888 5889 5890 5891 5892 5893 5894 5895 5896 5898 5899 5901 5904 5907 5911 5914 5918 5921 5924 5926 5929 5931 5932 5933 5933 5935 5935 5941 5943 5942 5942 5943 5943 5942 5941 5941 5941 5941 5940 5940 5940 5940
5884 5885 5886 5886 5887 5888 5889 5890 5891 5893 5894 5895 5897 5897 5899 5902 5907 5910 5913 5917 5920 5924 5926 5928 5930 5933 5934 5934 5931 5939 5941 5946 5946 5946 5945 5948 5946 5944 5945 5944 5943 5943 5943 5943 5942
5881 5882 5883 5884 5885 5886 5887 5888 5889 5891 5892 5894 5895 5896 5899 5902 5904 5908 5912 5916 5920 5923 5924 5927 5930 5931 5934 5936 5938 5939 5943 5951 5952 5951 5951 5949 5950 5951 5946 5946 5946 5945 5945 5945 5945
5879 5880 5880 5882 5883 5884 5885 5886 5887 5889 5891 5892 5894 5895 5897 5900 5903 5907 5912 5916 5920 5923 5925 5928 5930 5933 5936 5937 5939 5943 5945 5954 5952 5951 5951 5948 5954 5950 5948 5948 5948 5948 5948 5947 5947
5876 5877 5878 5879 5880 5881 5882 5884 5886 5887 5888 5890 5892 5893 5896 5899 5903 5906 5911 5915 5919 5922 5926 5929 5931 5934 5936 5938 5941 5947 5938 5947 5954 5951 5952 5934 5951 5952 5950 5950 5950 5950 5950 5950 5950
5873 5874 5875 5876 5878 5879 5880 5882 5883 5885 5886 5888 5890 5893 5895 5898 5901 5906 5910 5915 5918 5922 5926 5929 5933 5935 5939 5943 5946 5951 5953 5957 5957 5952 5951 5955 5957 5954 5952 5953 5951 5951 5951 5951 5950
5871 5871 5872 5873 5875 5876 5877 5879 5882 5883 5883 5886 5888 5889 5894 5896 5900 5904 5909 5913 5917 5921 5924 5928 5931 5935 5944 5937 5930 5947 5949 5954 5950 5951 5954 5959 5958 5958 5954 5953 5953 5951 5952 5951 5951
5868 5869 5869 5870 5872 5873 5874 5875 5877 5880 5881 5883 5885 5888 5891 5893 5898 5901 5906 5912 5916 5920 5923 5928 5931 5932 5935 5938 5941 5947 5951 5954 5950 5951 5954 5956 5958 5957 5954 5953 5953 5952 5952 5951 5950
5865 5866 5866 5867 5868 5869 5871 5873 5874 5876 5879 5880 5883 5885 5888 5892 5895 5899 5904 5910 5914 5918 5922 5926 5929 5927 5934 5938 5942 5948 5949 5951 5943 5951 5952 5955 5956 5956 5953 5953 5952 5951 5950 5950 5949
5862 5863 5864 5864 5866 5865 5867 5869 5871 5874 5876 5879 5880 5882 5885 5889 5892 5897 5902 5907 5911 5916 5919 5922 5925 5928 5933 5937 5943 5954 5948 5949 5950 5952 5956 5956 5951 5956 5956 5954 5955 5950 5949 5948 5948
5857 5859 5860 5861 5862 5862 5864 5865 5868 5872 5876 5874 5877 5881 5883 5887 5892 5896 5901 5904 5908 5913 5917 5921 5924 5928 5931 5935 5940 5937 5944 5947 5949 5951 5956 5957 5959 5954 5953 5954 5950 5947 5947 5947 5946
5852 5853 5856 5858 5858 5860 5860 5862 5865 5870 5871 5872 5875 5878 5881 5883 5886 5891 5895 5901 5906 5909 5913 5917 5919 5924 5929 5931 5936 5936 5942 5945 5947 5951 5956 5957 5956 5958 5952 5947 5945 5945 5945 5945 5944
5845 5847 5851 5852 5855 5856 5857 5859 5862 5864 5867 5871 5872 5874 5878 5881 5884 5888 5892 5896 5900 5905 5909 5911 5915 5919 5924 5927 5933 5937 5940 5947 5952 5952 5954 5949 5950 5956 5947 5943 5943 5942 5941 5940 5939
5838 5840 5843 5847 5849 5851 5853 5856 5857 5861 5864 5865 5869 5871 5875 5878 5882 5886 5889 5893 5898 5904 5910 5910 5913 5918 5921 5926 5930 5933 5938 5945 5949 5951 5951 5944 5947 5948 5939 5940 5939 5937 5936 5935 5934
5831 5833 5835 5839 5842 5845 5848 5850 5856 5858 5858 5861 5865 5869 5872 5875 5879 5882 5887 5891 5896 5900 5906 5909 5913 5916 5917 5919 5923 5929 5932 5940 5940 5941 5944 5945 5947 5938 5937 5934 5934 5932 5930 5929 5928
5822 5825 5828 5831 5833 5837 5842 5847 5849 5851 5855 5858 5862 5865 5869 5872 5875 5879 5883 5887 5891 5896 5900 5908 5907 5912 5911 5914 5918 5920 5928 5933 5934 5936 5938 5941 5942 5940 5930 5929 5929 5928 5927 5925 5923
5814 5816 5820 5822 5825 5828 5835 5841 5842 5845 5849 5852 5856 5858 5863 5870 5872 5876 5881 5886 5887 5893 5897 5899 5904 5909 5906 5908 5912 5916 5919 5922 5929 5933 5935 5937 5938 5932 5926 5921 5923 5922 5920 5919 5918
5805 5807 5812 5813 5818 5821 5825 5832 5834 5838 5842 5846 5849 5854 5857 5861 5865 5871 5878 5880 5880 5885 5888 5892 5898 5903 5906 5904 5907 5911 5916 5916 5920 5923 5924 5928 5931 5922 5919 5919 5918 5914 5914 5913 5912
5797 5799 5803 5804 5809 5813 5817 5821 5824 5832 5834 5839 5843 5847 5849 5854 5860 5864 5870 5878 5874 5876 5883 5887 5889 5897 5902 5905 5905 5901 5906 5909 5914 5918 5919 5921 5927 5914 5912 5913 5910 5909 5908 5907 5906
5789 5791 5794 5796 5800 5803 5808 5812 5816 5822 5826 5829 5834 5838 5843 5849 5854 5857 5862 5862 5864 5871 5873 5879 5883 5888 5895 5902 5902 5899 5896 5898 5902 5907 5910 5913 5915 5909 5907 5905 5902 5902 5901 5899 5898
5781 5782 5787 5788 5791 5794 5798 5802 5807 5811 5817 5820 5826 5831 5837 5842 5847 5850 5855 5857 5860 5862 5866 5871 5875 5880 5885 5891 5887 5892 5893 5894 5894 5898 5901 5907 5910 5911 5895 5891 5888 5892 5892 5891 5890
5772 5775 5777 5780 5783 5787 5789 5795 5799 5803 5805 5811 5818 5823 5827 5831 5838 5844 5848 5852 5851 5855 5859 5862 5866 5870 5875 5878 5882 5880 5884 5885 5886 5889 5889 5892 5894 5897 5894 5885 5875 5883 5883 5882 5881
5764 5766 5769 5772 5775 5778 5781 5786 5789 5793 5795 5803 5804 5811 5815 5822 5827 5832 5835 5841 5849 5849 5851 5856 5860 5863 5865 5868 5873 5875 5875 5875 5877 5879 5881 5882 5885 5879 5881 5876 5868 5873 5872 5872 5872